Temp
8 8 8 8 8 8 7 7 6 6 6 6 6 6 6 7 7 7 7 7 7 7 7 8 8 8 8 8 8 8 8 8 9 10 10 9 9 9 9 9 9 8 9 9 9
8 8 7 7 7 7 7 6 6 6 6 6 6 6 6 7 7 7 7 7 7 7 7 8 7 7 8 7 8 8 8 8 9 9 8 9 9 9 9 9 10 9 9 9 9
7 8 7 7 7 7 7 6 5 5 6 6 6 6 6 6 7 6 7 7 7 7 7 8 8 8 8 7 7 7 8 8 8 8 9 9 9 9 9 10 10 9 7 9 9
7 7 7 7 7 7 6 6 5 5 6 6 6 6 6 6 7 7 7 7 7 7 8 8 8 8 7 7 7 7 9 8 8 9 9 9 9 10 10 11 9 9 8 9 10
7 7 7 7 7 6 6 5 5 5 5 6 6 6 6 6 6 7 7 7 7 7 8 8 8 7 7 7 7 8 9 9 9 9 10 10 10 9 11 10 10 10 9 9 10
7 7 7 7 6 6 5 5 5 5 6 6 6 6 6 6 7 7 7 7 7 7 8 8 8 8 8 8 8 8 8 9 9 10 9 9 10 9 10 9 10 10 9 9 9
7 7 7 7 6 5 5 5 5 5 5 5 6 6 6 6 6 7 7 7 7 8 8 8 8 8 8 8 8 8 8 9 10 9 9 9 10 11 9 9 9 9 10 9 10
6 6 6 6 6 5 5 5 5 5 5 5 6 6 6 7 7 7 7 7 7 8 8 8 8 8 8 8 8 9 8 9 9 9 9 9 11 10 9 8 8 8 8 8 9
6 6 6 6 5 5 5 5 5 5 5 5 5 6 6 7 7 7 7 7 8 8 8 8 8 8 8 8 8 9 8 9 9 9 8 8 11 11 9 7 8 8 8 8 8
6 6 6 6 5 5 5 5 6 6 6 6 6 6 7 7 8 7 7 7 7 7 8 8 7 8 8 7 7 8 8 8 8 8 8 8 9 11 9 9 8 8 8 8 8
6 6 6 6 5 5 5 5 6 6 6 7 6 6 6 7 7 7 7 7 7 7 7 6 6 7 7 8 8 8 7 7 8 7 7 8 9 10 10 8 9 9 9 9 9
6 6 5 6 6 6 6 6 6 6 7 7 6 7 7 7 6 7 7 7 7 7 6 6 7 7 7 7 7 7 7 7 7 7 7 8 10 10 9 8 9 9 9 9 9
6 5 6 5 6 6 6 6 6 5 6 7 7 7 7 7 6 6 7 7 7 7 7 6 7 7 8 8 7 6 6 7 7 7 8 7 10 10 9 9 8 9 8 9 9
6 6 5 5 5 6 6 6 6 5 6 7 7 7 7 6 7 7 7 7 7 7 6 7 7 7 7 7 6 6 7 7 7 6 6 7 5 10 10 9 8 7 8 8 8
6 5 5 5 6 5 6 6 5 5 6 7 7 7 7 6 7 7 7 7 7 6 6 7 7 7 7 7 7 7 7 7 7 6 5 6 6 10 10 9 8 7 8 8 8
5 5 5 5 5 5 5 5 5 5 6 7 7 7 7 7 7 7 7 7 7 7 7 8 7 7 7 7 7 7 7 8 6 5 4 8 7 9 10 8 7 7 7 7 8
5 5 5 5 5 5 5 5 5 5 7 7 7 7 7 6 7 7 7 7 7 7 8 7 7 7 7 7 7 6 6 7 5 4 6 7 7 9 9 8 7 7 6 7 7
5 5 5 5 4 4 5 4 4 7 7 7 7 7 6 6 7 7 7 7 7 6 7 7 7 7 7 7 6 6 6 6 5 5 5 7 7 9 9 8 7 6 6 6 6
5 5 5 5 4 4 4 4 7 7 7 7 7 7 6 7 6 6 7 7 7 7 6 7 8 7 7 6 6 5 5 6 5 6 5 7 8 8 8 8 7 6 6 5 6
4 5 5 5 4 4 3 4 5 6 6 6 6 7 7 7 7 6 7 7 7 6 6 6 6 6 6 6 6 5 5 5 5 3 5 8 7 8 7 7 7 6 5 4 4
4 4 5 4 4 3 4 5 5 6 6 6 6 6 6 7 6 6 7 6 6 6 6 5 5 6 5 6 6 5 4 4 4 5 3 2 6 8 8 6 6 6 5 4 3
3 4 4 4 4 4 5 5 5 5 5 5 6 6 6 6 5 5 6 6 5 5 5 5 5 5 5 5 6 5 5 4 4 5 5 5 4 6 6 5 5 4 4 3 3
3 3 4 4 4 4 5 5 4 5 5 5 5 6 5 5 5 5 5 5 5 4 4 4 4 4 5 5 5 5 4 4 4 4 3 3 4 6 6 4 4 4 4 4 4
2 2 3 3 4 4 4 4 4 4 5 5 5 5 5 5 5 4 4 4 4 4 4 3 3 3 3 4 4 3 3 3 3 3 3 3 3 3 3 3 2 2 2 2 2
2 2 3 4 4 4 3 3 3 4 4 5 5 5 4 4 4 3 3 3 3 3 3 2 2 2 2 3 2 2 3 2 2 2 2 5 2 3 2 2 2 2 2 1 0
1 2 2 2 3 3 3 3 3 3 3 4 4 4 4 3 3 3 3 2 2 2 2 2 2 1 1 2 1 2 2 2 2 2 2 2 2 2 2 2 2 2 1 0 -0
1 1 1 2 2 2 3 4 4 3 3 3 3 3 3 3 3 3 3 3 2 2 1 1 0 0 0 1 1 2 5 4 4 3 3 2 2 2 2 2 1 1 0 -0 -1
Height
3149 3150 3151 3152 3153 3153 3154 3156 3157 3161 3163 3166 3168 3169 3169 3171 3172 3173 3173 3174 3174 3174 3173 3173 3174 3173 3173 3174 3174 3173 3174 3173 3173 3172 3169 3168 3165 3164 3161 3161 3160 3159 3158 3155 3157
3148 3150 3150 3151 3152 3152 3154 3156 3157 3161 3164 3166 3169 3171 3170 3172 3173 3173 3174 3174 3174 3174 3173 3172 3172 3172 3172 3171 3172 3171 3170 3169 3171 3168 3165 3164 3162 3161 3157 3155 3155 3154 3151 3152 3152
3147 3149 3149 3150 3150 3151 3153 3156 3157 3160 3163 3166 3169 3170 3171 3172 3173 3173 3173 3174 3174 3173 3172 3171 3171 3171 3170 3170 3171 3168 3165 3166 3165 3164 3162 3159 3157 3156 3153 3150 3152 3150 3147 3145 3147
3146 3147 3148 3148 3149 3150 3152 3155 3158 3159 3162 3165 3168 3169 3170 3171 3174 3173 3173 3173 3172 3172 3171 3170 3169 3169 3169 3169 3169 3165 3164 3162 3161 3160 3157 3155 3152 3151 3149 3147 3146 3145 3145 3139 3140
3145 3145 3147 3146 3147 3148 3152 3155 3158 3159 3161 3165 3167 3168 3169 3171 3171 3171 3171 3172 3170 3170 3169 3167 3168 3167 3165 3166 3166 3163 3160 3158 3157 3155 3152 3150 3149 3145 3143 3142 3141 3140 3140 3136 3136
3144 3144 3145 3144 3145 3148 3151 3155 3157 3159 3161 3164 3165 3166 3167 3169 3167 3169 3169 3169 3168 3168 3167 3166 3165 3165 3163 3163 3162 3160 3158 3155 3153 3151 3149 3145 3144 3142 3141 3138 3138 3137 3136 3135 3132
3145 3144 3144 3144 3146 3148 3150 3154 3156 3159 3160 3162 3163 3164 3164 3167 3164 3166 3166 3166 3165 3164 3164 3163 3162 3162 3161 3160 3157 3157 3153 3152 3149 3148 3145 3142 3138 3139 3137 3136 3133 3131 3131 3130 3129
3143 3144 3143 3144 3146 3148 3150 3153 3156 3158 3158 3161 3161 3161 3160 3162 3161 3162 3162 3162 3162 3162 3161 3160 3159 3159 3158 3157 3155 3154 3153 3150 3147 3146 3144 3142 3130 3135 3135 3133 3130 3128 3126 3123 3122
3142 3143 3142 3144 3145 3148 3150 3151 3153 3155 3156 3158 3159 3159 3157 3158 3157 3158 3159 3159 3159 3159 3158 3157 3157 3156 3155 3155 3152 3150 3151 3151 3148 3145 3142 3138 3128 3130 3127 3125 3122 3121 3120 3118 3117
3140 3142 3143 3144 3145 3148 3149 3150 3151 3153 3154 3154 3155 3158 3156 3155 3155 3155 3156 3157 3156 3155 3156 3155 3154 3152 3153 3153 3152 3150 3149 3147 3146 3145 3139 3135 3126 3124 3123 3120 3119 3117 3115 3114 3114
3139 3141 3141 3142 3144 3146 3148 3148 3151 3152 3150 3152 3152 3152 3152 3152 3152 3153 3154 3154 3154 3153 3153 3152 3152 3152 3153 3152 3150 3149 3148 3145 3142 3140 3136 3132 3124 3121 3119 3118 3118 3115 3113 3112 3110
3138 3139 3139 3140 3143 3145 3146 3147 3147 3149 3147 3148 3148 3149 3149 3149 3150 3151 3152 3153 3150 3151 3152 3153 3149 3150 3150 3148 3147 3145 3144 3141 3139 3137 3133 3127 3121 3119 3118 3118 3116 3115 3113 3111 3109
3135 3136 3137 3139 3141 3143 3144 3145 3145 3145 3144 3145 3144 3144 3145 3147 3147 3147 3148 3148 3148 3148 3149 3149 3148 3146 3145 3144 3143 3143 3142 3138 3137 3132 3129 3125 3121 3120 3118 3117 3115 3113 3111 3109 3108
3133 3134 3136 3137 3140 3141 3143 3144 3144 3145 3144 3143 3141 3139 3141 3142 3143 3143 3145 3147 3147 3147 3146 3145 3143 3143 3142 3141 3140 3139 3137 3135 3133 3131 3128 3127 3123 3118 3117 3116 3113 3110 3110 3108 3107
3131 3132 3133 3135 3137 3138 3142 3142 3144 3146 3146 3141 3138 3138 3139 3140 3141 3141 3142 3144 3145 3144 3145 3144 3141 3140 3138 3138 3138 3137 3135 3132 3130 3128 3126 3124 3125 3118 3119 3116 3113 3110 3109 3107 3106
3127 3130 3131 3133 3135 3137 3139 3141 3144 3148 3141 3137 3136 3137 3137 3137 3139 3140 3141 3142 3143 3141 3140 3140 3139 3138 3136 3135 3135 3135 3132 3128 3127 3127 3126 3121 3124 3117 3116 3114 3112 3110 3108 3105 3105
3124 3128 3129 3131 3133 3134 3137 3140 3145 3142 3137 3136 3135 3135 3136 3137 3137 3138 3139 3140 3141 3140 3137 3137 3136 3135 3134 3134 3134 3133 3131 3127 3129 3128 3124 3121 3122 3112 3113 3112 3109 3107 3103 3102 3102
3122 3125 3126 3130 3131 3133 3135 3140 3139 3135 3134 3134 3133 3134 3135 3136 3137 3137 3137 3137 3137 3138 3137 3137 3134 3133 3133 3132 3133 3131 3131 3131 3130 3127 3122 3119 3116 3112 3111 3111 3107 3105 3101 3100 3098
3119 3121 3124 3127 3128 3130 3134 3135 3133 3131 3131 3132 3132 3133 3134 3134 3136 3135 3135 3135 3135 3135 3137 3134 3132 3131 3130 3130 3131 3129 3129 3130 3128 3124 3121 3114 3111 3111 3111 3107 3107 3104 3097 3094 3094
3115 3118 3120 3123 3125 3127 3130 3128 3128 3127 3129 3130 3131 3132 3132 3132 3133 3133 3133 3132 3133 3133 3133 3132 3132 3127 3128 3128 3127 3127 3128 3129 3127 3125 3118 3110 3110 3109 3110 3109 3106 3102 3096 3089 3085
3112 3114 3116 3118 3121 3123 3121 3122 3125 3123 3127 3129 3128 3129 3130 3131 3130 3131 3131 3131 3130 3130 3131 3130 3130 3127 3125 3124 3123 3124 3125 3125 3126 3124 3120 3115 3107 3105 3105 3104 3102 3099 3092 3088 3082
3108 3109 3112 3114 3117 3115 3115 3119 3119 3120 3123 3123 3124 3125 3126 3128 3127 3128 3128 3128 3127 3127 3127 3127 3126 3123 3123 3122 3120 3121 3121 3121 3121 3120 3117 3113 3095 3097 3102 3101 3100 3094 3087 3083 3079
3102 3104 3107 3109 3109 3109 3111 3113 3114 3116 3118 3118 3119 3120 3121 3124 3125 3123 3125 3124 3124 3124 3123 3123 3123 3122 3120 3120 3118 3118 3118 3118 3117 3116 3110 3114 3097 3098 3097 3095 3090 3086 3082 3079 3075
3098 3100 3101 3102 3103 3105 3107 3109 3110 3112 3112 3114 3114 3115 3118 3119 3120 3120 3121 3120 3120 3121 3121 3120 3119 3120 3118 3116 3117 3114 3112 3113 3113 3110 3103 3098 3090 3093 3091 3087 3081 3078 3077 3073 3069
3092 3093 3095 3095 3098 3100 3104 3105 3106 3106 3108 3109 3109 3111 3113 3115 3115 3115 3117 3116 3116 3117 3116 3115 3112 3113 3112 3111 3109 3106 3102 3102 3101 3098 3100 3082 3088 3087 3085 3079 3075 3071 3069 3065 3059
3085 3087 3089 3091 3091 3095 3098 3098 3101 3103 3103 3104 3105 3107 3108 3109 3112 3112 3112 3112 3111 3111 3110 3110 3107 3107 3105 3103 3101 3097 3091 3092 3090 3090 3088 3085 3082 3084 3080 3073 3070 3066 3064 3057 3051
3076 3080 3083 3083 3087 3090 3090 3094 3095 3098 3099 3099 3100 3103 3102 3104 3104 3105 3107 3107 3107 3107 3105 3105 3104 3104 3098 3098 3094 3089 3084 3084 3084 3084 3083 3081 3080 3075 3073 3069 3065 3061 3059 3050 3045
Wind_Speed
4 4 5 5 5 5 7 11 13 16 17 16 12 9 10 8 7 4 1 3 5 6 7 7 6 4 5 2 4 6 10 11 10 14 16 14 19 21 24 21 19 21 22 25 22
4 5 4 5 6 6 8 13 14 16 17 15 10 8 8 6 4 6 1 5 7 8 8 9 9 10 8 10 12 10 12 13 11 16 21 21 23 25 25 25 21 23 25 21 21
4 5 6 7 7 8 11 14 15 16 16 15 10 8 7 5 3 7 6 9 10 9 8 8 8 7 9 5 12 14 15 15 15 20 21 22 22 22 25 24 18 20 22 25 19
5 5 7 8 8 9 14 15 15 16 15 14 11 8 7 6 1 6 12 12 10 10 10 9 8 8 10 11 9 22 17 14 19 19 21 20 22 22 23 19 17 16 21 28 26
6 5 8 8 8 12 16 16 16 15 14 14 11 8 8 7 9 13 14 14 14 13 11 10 10 8 10 7 17 21 14 16 16 20 21 20 17 22 19 15 16 16 20 27 25
5 5 7 7 9 15 16 16 15 14 14 13 12 11 11 12 14 17 19 17 14 14 12 11 12 12 14 14 16 18 19 20 18 17 15 21 23 25 15 16 14 15 17 20 22
7 5 6 5 9 14 15 15 14 15 14 12 12 13 16 14 17 18 18 18 17 15 14 13 13 13 14 14 15 19 25 16 8 15 25 27 26 19 16 19 22 22 19 21 23
5 5 5 5 8 12 14 14 14 14 13 13 13 16 19 18 19 18 18 20 17 14 13 13 13 13 13 14 15 16 12 13 17 21 25 28 33 25 14 18 24 27 27 29 27
7 7 5 6 7 10 12 13 13 13 13 14 14 18 21 20 17 17 15 16 14 12 11 12 13 13 14 12 13 12 15 19 20 21 25 29 35 27 33 21 21 24 26 25 27
8 7 7 8 7 7 8 9 10 12 13 14 15 16 14 15 10 9 8 11 13 12 13 12 10 9 8 7 9 19 20 23 21 18 27 31 37 31 15 10 14 14 13 15 18
11 10 9 7 8 9 10 8 7 8 10 10 10 9 18 12 11 9 9 12 13 14 12 8 12 10 12 15 17 21 24 22 20 23 27 29 32 20 2 9 10 10 8 10 13
12 11 9 8 10 9 9 8 6 8 13 12 14 19 22 17 18 17 15 16 15 11 3 10 14 12 15 18 19 17 17 20 21 17 29 29 26 7 6 4 12 12 11 13 14
12 11 11 10 9 10 9 8 7 10 16 17 17 18 22 19 18 15 13 12 11 12 7 15 12 19 15 13 12 13 16 21 21 24 23 17 11 9 3 6 12 9 12 14 16
13 13 12 12 11 9 10 8 7 7 9 13 11 11 16 18 15 14 11 11 10 7 8 10 11 10 12 14 12 15 13 14 19 19 8 16 8 4 3 3 7 15 14 17 17
15 13 12 13 10 10 9 8 5 4 3 6 10 7 7 12 5 3 5 5 7 8 10 7 13 14 15 13 10 11 13 17 18 14 13 4 5 3 4 4 5 12 16 18 19
14 14 14 13 13 9 9 6 5 4 7 5 5 6 6 7 7 4 3 5 7 9 9 8 13 14 12 9 5 13 14 13 12 8 4 2 4 8 6 5 8 11 15 16 20
14 15 13 12 11 9 9 7 4 7 2 4 6 5 6 6 6 6 7 8 5 4 2 9 13 9 7 4 9 10 13 4 2 3 3 4 6 22 19 19 16 14 14 22 27
15 14 13 14 12 11 10 11 7 4 7 5 4 5 5 7 7 8 8 6 6 10 13 4 6 6 7 6 11 11 4 4 4 3 7 20 7 7 11 20 5 10 22 31 29
14 15 16 14 13 13 13 15 5 5 9 6 6 6 7 9 8 6 7 7 9 9 5 5 6 7 13 17 10 5 4 6 10 18 13 9 13 17 8 10 11 28 35 36 34
14 15 15 15 15 15 19 18 12 15 14 6 6 5 5 9 6 4 4 7 10 12 10 7 10 13 11 11 12 11 10 4 4 3 4 8 18 15 3 20 27 28 29 30 34
15 16 14 15 17 20 26 25 15 20 15 11 10 9 9 6 9 10 6 8 13 10 11 11 7 10 17 13 8 8 5 4 6 9 3 5 5 9 22 20 24 29 26 29 36
19 19 17 17 21 24 26 19 23 21 14 18 18 17 12 6 11 9 10 11 8 6 7 11 8 14 17 19 19 16 13 13 8 6 17 21 32 35 8 27 28 32 41 35 39
21 23 20 19 25 28 25 22 25 22 18 17 16 16 17 17 11 12 13 17 16 14 7 7 5 7 9 7 12 5 5 10 15 18 28 13 16 8 30 40 36 41 44 44 42
22 19 23 25 26 27 23 23 25 24 19 20 21 19 16 16 15 10 15 13 10 12 12 14 16 19 17 20 24 30 29 24 23 24 30 35 43 39 37 39 39 38 36 35 40
27 27 28 17 31 28 24 17 17 21 20 21 22 21 18 18 12 17 17 18 18 16 17 18 25 21 20 25 28 30 35 33 32 34 31 42 39 35 29 32 35 38 40 41 39
30 30 30 28 26 18 22 34 28 20 22 21 24 19 17 22 15 8 15 15 14 14 17 18 22 18 20 25 23 27 30 32 33 33 36 34 32 22 28 32 37 42 40 43 43
32 32 31 31 29 29 30 26 25 22 25 26 24 18 22 20 23 25 25 22 21 21 19 18 18 15 9 7 18 22 8 9 13 14 18 22 25 32 34 35 37 36 40 44 43
Wind_Direction
235 222 220 236 240 225 201 176 163 163 163 163 156 159 150 150 149 152 95 18 335 341 353 348 336 345 332 310 292 275 271 272 277 289 279 276 286 286 290 285 277 273 278 279 285
209 239 232 241 242 225 198 180 166 167 170 164 167 166 159 166 192 229 259 302 309 325 334 347 349 315 333 315 309 293 281 277 276 277 277 274 279 290 286 295 285 283 280 277 274
213 243 244 242 234 218 193 181 170 170 173 176 184 180 180 188 243 261 280 286 300 311 322 329 323 300 305 276 290 289 300 299 265 276 284 293 291 288 290 289 300 287 290 287 270
232 249 252 238 225 205 187 179 177 174 178 186 198 194 203 206 16 259 279 282 289 306 313 320 319 311 307 286 282 284 297 292 286 292 297 295 294 296 290 314 293 277 254 274 286
233 244 253 228 211 192 183 183 183 180 182 194 205 212 224 228 267 283 279 281 286 295 297 311 311 297 284 287 273 285 301 300 299 296 297 296 303 301 318 301 278 283 258 266 281
238 240 241 216 195 183 181 186 189 192 193 204 214 224 235 242 257 262 277 280 286 294 292 298 300 293 290 285 278 290 295 300 299 299 300 306 306 302 337 306 297 292 287 275 279
238 221 212 194 187 183 183 191 195 204 206 216 227 239 246 249 257 263 271 277 284 286 288 296 294 290 288 296 296 306 304 309 326 333 319 316 308 321 332 322 309 302 294 284 277
233 213 186 173 183 187 192 199 206 212 218 231 241 254 260 258 262 269 272 277 278 283 287 292 294 291 292 296 304 312 323 327 336 325 313 314 308 323 311 280 280 285 285 287 284
229 216 190 178 180 195 205 212 218 223 229 240 250 259 267 270 268 268 267 273 283 282 288 297 294 296 302 312 321 309 275 306 313 316 310 306 310 329 327 314 299 297 296 293 292
227 223 205 197 193 205 208 213 229 237 243 249 251 260 262 265 270 275 264 267 282 289 294 294 302 311 341 308 293 306 301 297 303 308 302 302 309 327 325 332 330 306 297 291 291
212 214 208 212 218 216 222 222 226 257 259 257 248 237 251 256 272 267 266 272 282 289 304 296 296 292 287 274 281 290 295 297 308 309 302 310 311 330 36 32 338 351 323 319 308
219 217 211 213 226 226 229 232 240 257 275 260 253 256 259 260 267 269 271 277 287 292 311 268 286 286 272 285 290 294 298 306 311 302 304 317 332 33 21 286 337 350 1 356 352
230 224 225 223 228 243 243 254 257 276 283 280 265 254 251 254 259 259 274 274 275 277 260 256 262 281 290 291 300 293 291 293 295 311 318 307 325 20 5 307 333 325 7 360 3
229 228 227 230 229 233 243 248 249 282 291 271 271 259 248 244 252 255 259 265 274 274 265 271 271 271 296 300 297 294 300 300 303 312 312 305 291 302 264 31 357 321 351 345 348
226 223 222 229 236 225 238 235 238 256 281 244 244 240 226 197 205 220 221 246 263 257 280 279 284 298 302 292 291 282 310 305 300 302 310 333 237 55 280 199 271 294 339 339 341
223 222 221 227 229 219 226 218 207 208 243 232 228 211 193 193 218 234 257 276 282 281 275 298 271 297 291 300 288 316 325 320 298 322 267 244 224 284 272 305 277 286 314 317 331
221 226 225 224 219 211 210 195 186 232 258 243 222 206 177 237 235 246 268 279 251 315 292 306 288 291 299 296 328 323 348 296 201 212 246 220 277 275 282 289 305 307 309 306 323
224 224 221 220 208 206 202 187 224 234 211 243 200 190 182 237 245 265 267 265 264 258 284 282 267 275 301 276 317 301 279 292 298 327 292 305 250 303 332 313 286 324 313 318 311
225 226 224 219 214 208 198 199 215 210 236 232 221 237 243 248 233 261 268 229 240 260 226 314 256 278 290 297 301 280 286 279 293 285 260 240 259 283 298 333 347 328 321 322 315
224 224 222 218 216 209 210 214 233 242 257 223 191 219 227 248 215 224 232 242 256 235 254 253 283 278 289 292 296 264 281 304 245 281 290 289 314 295 299 330 310 332 323 320 315
230 230 222 221 219 216 221 228 238 248 245 235 224 235 225 219 249 241 246 264 263 248 255 255 257 280 298 303 294 274 286 273 255 270 269 302 242 229 313 331 322 317 307 309 310
229 227 227 221 220 226 232 239 238 248 247 246 250 247 221 232 249 241 238 243 254 250 244 258 266 269 277 280 278 285 280 255 251 262 280 299 287 291 224 329 317 302 306 309 309
228 228 224 224 227 231 236 237 242 251 251 248 246 247 249 236 241 242 241 247 254 263 251 263 258 300 305 276 269 262 307 288 273 270 269 275 261 224 283 304 298 293 293 298 303
230 235 231 230 233 237 239 250 249 250 253 248 250 249 246 245 231 235 237 261 257 255 256 269 265 261 256 267 290 293 285 278 277 278 278 263 279 288 293 301 299 299 304 307 308
227 231 233 235 236 235 222 231 247 248 243 246 247 248 250 249 247 248 252 257 266 267 264 268 270 274 267 269 274 276 277 278 272 270 264 283 285 298 312 300 298 302 310 313 311
235 234 237 238 247 244 238 241 243 246 251 250 249 256 245 238 227 241 227 235 245 262 269 271 274 278 278 288 288 287 281 277 274 272 271 276 286 310 296 295 296 303 314 312 312
237 240 244 249 247 248 249 254 251 250 245 251 252 240 249 243 236 244 247 253 259 264 266 273 281 296 281 263 297 290 314 275 284 288 288 285 292 285 283 285 294 304 318 310 310